Regional Weather Roundup
Issued by NWS Sioux Falls, SD

Home | Current Version | Previous Version | Graphics & Text | Print | Product List | Glossary Off
Versions: 1 2 3 4 5 6 7 8 9 10 11 12 13 14 15 16 17 18 19 20 21 22 23 24 25 26 27 28 29 30 31 32 33 34 35 36 37 38 39 40 41 42 43 44 45 46 47 48 49 50

000
ASUS43 KFSD 021010
RWRFSD

WEATHER ROUNDUP FOR SE SOUTH DAKOTA/SW MINNESOTA/NW IOWA
NATIONAL WEATHER SERVICE SIOUX FALLS SD
500 AM CDT WED SEP 02 2015

NOTE: "FAIR" INDICATES FEW OR NO CLOUDS BELOW 12,000 FEET WITH NO
SIGNIFICANT WEATHER AND OR OBSTRUCTIONS TO VISIBILITY.


SDZ038>040-050-052>070-021100-
SOUTHEAST SOUTH DAKOTA

CITY           SKY/WX    TMP DP  RH WIND       PRES   REMARKS
BROOKINGS      CLEAR     64  61  88 SE8       29.87S
CHAMBERLAIN    CLEAR     63  63 100 SE7       29.79S
HURON          PTCLDY    69  67  93 SE10      29.79S
MADISON        FOG       63  63 100 E6        29.86S VSB 1/4
MITCHELL       CLEAR     68  67  96 SE7       29.81S
SIOUX FALLS    CLEAR     67  65  93 SE3       29.85R
WINNER         FAIR      69  61  75 CALM      29.81R
YANKTON        CLEAR     66  64  94 E3        29.82S
$$

MNZ071-072-080-081-089-090-097-098-021100-
SOUTHWEST MINNESOTA

CITY           SKY/WX    TMP DP  RH WIND       PRES   REMARKS
FAIRMONT       CLOUDY    72  64  78 S8        29.92S
JACKSON        CLEAR     68  68 100 SE6       29.92S FOG
LUVERNE        CLEAR     68  64  88 E3        29.88R FOG
MARSHALL       CLEAR     64  57  77 SE6       29.88S
MONTEVIDEO     PTCLDY    66  64  94 S7        29.88S
PIPESTONE      CLEAR     64  63  94 SE7       29.88S FOG
REDWOOD FALLS  MOCLDY    67  64  90 SE10      29.87F
TRACY          CLEAR     67  66  95 S7        29.89S
WINDOM         CLEAR     68  66  94 E9        29.90F
WORTHINGTON    CLEAR     66  63  88 SE5       29.91R
$$

IAZ001>003-012>014-020>022-031-032-NEZ013-014-SDZ071-021100-
NORTHWEST IOWA

CITY           SKY/WX    TMP DP  RH WIND       PRES   REMARKS
CHEROKEE       CLEAR     71  68  92 S7        29.89S
DENISON        CLEAR     72  68  88 S16G24    29.90R
ESTHERVILLE    CLEAR     69  67  93 S10       29.91R
LE MARS        CLEAR     70  68  94 S9        29.87S
ORANGE CITY    CLEAR     70  66  88 S7        29.88R
SHELDON        CLEAR     68  66  94 SE6       29.88R
SIOUX CITY     CLEAR     69  63  81 E8        29.87R
SPENCER        CLEAR     71  66  84 SE8       29.91R HAZE
STORM LAKE     CLEAR     70  68  94 S10       29.92R
$$

ABBREVIATIONS USED IN REMARKS
   TC - TEMPERATURE IN CELSIUS
  WCI - WIND CHILL INDEX
   HX - HEAT INDEX
  VSB - VISIBILITY



USA.gov is the U.S. government's official web portal to all federal, state and local government web resources and services.